| time (UTC) | temp C | wind direction | speed KPH | gust KPH | rain 1hr cm | rain 24hr cm | rain mn cm | humidity % | barometer mb |
| 20260504035505 | 13 | 184 | 0.0 | 4.8 | 0.00 | 0.20 | 0.20 | 65 | 1006.6 |
| 20260504035047 | 13 | 199 | 0.0 | 3.2 | 0.00 | 0.20 | 0.20 | 65 | 1006.6 |
| 20260504034520 | 13 | 182 | 0.0 | 3.2 | 0.00 | 0.20 | 0.20 | 64 | 1006.6 |
| 20260504034009 | 13 | 195 | 0.0 | 3.2 | 0.00 | 0.20 | 0.20 | 64 | 1006.7 |
| 20260504033504 | 13 | 180 | 0.0 | 4.8 | 0.00 | 0.20 | 0.20 | 64 | 1006.8 |
| 20260504033020 | 13 | 231 | 0.0 | 4.8 | 0.00 | 0.20 | 0.20 | 63 | 1007.0 |
| 20260504032509 | 13 | 174 | 0.0 | 4.8 | 0.00 | 0.20 | 0.20 | 63 | 1007.0 |
| 20260504032013 | 13 | 176 | 0.0 | 4.8 | 0.00 | 0.20 | 0.20 | 63 | 1007.1 |
| 20260504031512 | 13 | 193 | 0.0 | 3.2 | 0.00 | 0.20 | 0.20 | 63 | 1007.1 |
| 20260504031004 | 13 | 201 | 0.0 | 6.4 | 0.00 | 0.20 | 0.20 | 63 | 1007.2 |
| 20260504030504 | 13 | 250 | 0.0 | 6.4 | 0.00 | 0.20 | 0.20 | 62 | 1007.2 |
| 20260504030026 | 13 | 174 | 0.0 | 3.2 | 0.00 | 0.20 | 0.20 | 62 | 1007.2 |
| 20260504025504 | 14 | 176 | 0.0 | 3.2 | 0.00 | 0.20 | 0.20 | 61 | 1007.2 |
| 20260504025006 | 14 | 236 | 0.0 | 3.2 | 0.00 | 0.20 | 0.20 | 61 | 1007.2 |
| 20260504024515 | 14 | 213 | 0.0 | 3.2 | 0.00 | 0.20 | 0.20 | 60 | 1007.1 |
| 20260504024007 | 15 | 232 | 0.0 | 6.4 | 0.00 | 0.20 | 0.20 | 59 | 1007.2 |
| 20260504023505 | 15 | 161 | 0.0 | 6.4 | 0.00 | 0.20 | 0.20 | 60 | 1007.1 |
| 20260504023020 | 15 | 195 | 0.0 | 4.8 | 0.00 | 0.20 | 0.20 | 59 | 1007.2 |
| 20260504022506 | 15 | 175 | 0.0 | 4.8 | 0.00 | 0.20 | 0.20 | 59 | 1007.1 |
| 20260504022009 | 15 | 189 | 0.0 | 4.8 | 0.00 | 0.20 | 0.20 | 59 | 1007.0 |
| 20260504021522 | 15 | 199 | 0.0 | 3.2 | 0.00 | 0.20 | 0.20 | 58 | 1006.9 |
| 20260504021003 | 15 | 205 | 0.0 | 3.2 | 0.00 | 0.20 | 0.20 | 58 | 1006.8 |
| 20260504020505 | 15 | 205 | 0.0 | 8.0 | 0.00 | 0.20 | 0.20 | 57 | 1006.8 |
| 20260504020011 | 15 | 167 | 1.6 | 8.0 | 0.00 | 0.20 | 0.20 | 56 | 1006.7 |
| 20260504015508 | 15 | 172 | 1.6 | 4.8 | 0.00 | 0.20 | 0.20 | 56 | 1006.7 |
| 20260504015011 | 15 | 166 | 0.0 | 4.8 | 0.00 | 0.20 | 0.20 | 56 | 1006.6 |
| 20260504014537 | 16 | 164 | 0.0 | 4.8 | 0.00 | 0.20 | 0.20 | 56 | 1006.6 |
| 20260504014005 | 16 | 163 | 1.6 | 4.8 | 0.00 | 0.20 | 0.20 | 1006.5 | |
| 20260504013507 | 16 | 226 | 0.0 | 4.8 | 0.00 | 0.20 | 0.20 | 54 | 1006.5 |
| 20260504013030 | 16 | 197 | 1.6 | 8.0 | 0.00 | 0.20 | 0.20 | 54 | 1006.5 |
| 20260504012513 | 16 | 222 | 1.6 | 8.0 | 0.00 | 0.20 | 0.20 | 54 | 1006.4 |
| 20260504012009 | 16 | 176 | 0.0 | 8.0 | 0.00 | 0.20 | 0.20 | 54 | 1006.4 |
| 20260504011522 | 16 | 200 | 1.6 | 6.4 | 0.00 | 0.20 | 0.20 | 54 | 1006.4 |
| 20260504011010 | 16 | 229 | 1.6 | 6.4 | 0.00 | 0.20 | 0.20 | 53 | 1006.4 |
| 20260504010503 | 16 | 184 | 0.0 | 9.7 | 0.00 | 0.20 | 0.20 | 53 | 1006.4 |
| 20260504010007 | 16 | 263 | 1.6 | 9.7 | 0.00 | 0.20 | 0.20 | 52 | 1006.3 |
| 20260504005505 | 16 | 192 | 1.6 | 8.0 | 0.00 | 0.20 | 0.20 | 52 | 1006.2 |
| 20260504005011 | 17 | 191 | 0.0 | 4.8 | 0.00 | 0.20 | 0.20 | 52 | 1006.2 |
| 20260504004512 | 17 | 98 | 1.6 | 11.3 | 0.00 | 0.20 | 0.20 | 52 | 1006.2 |
| 20260504004004 | 17 | 226 | 1.6 | 11.3 | 0.00 | 0.20 | 0.20 | 50 | 1006.4 |
| 20260504003506 | 17 | 155 | 3.2 | 11.3 | 0.00 | 0.20 | 0.20 | 50 | 1006.4 |
| 20260504003017 | 17 | 135 | 1.6 | 12.9 | 0.00 | 0.20 | 0.20 | 49 | 1006.4 |
| 20260504002510 | 17 | 221 | 1.6 | 12.9 | 0.00 | 0.20 | 0.20 | 49 | 1006.4 |
| 20260504002006 | 17 | 190 | 1.6 | 11.3 | 0.00 | 0.20 | 0.20 | 49 | 1006.4 |
| 20260504001521 | 18 | 234 | 3.2 | 11.3 | 0.00 | 0.20 | 0.20 | 48 | 1006.4 |
| 20260504001007 | 18 | 193 | 0.0 | 16.1 | 0.00 | 0.20 | 0.20 | 51 | 1006.5 |
| 20260504000510 | 18 | 129 | 1.6 | 16.1 | 0.00 | 0.20 | 0.20 | 47 | 1006.4 |
| 20260504000028 | 18 | 165 | 4.8 | 12.9 | 0.00 | 0.20 | 0.20 | 47 | 1006.4 |
| 20260503235507 | 18 | 240 | 3.2 | 8.0 | 0.00 | 0.20 | 0.20 | 47 | 1006.4 |
| 20260503235004 | 18 | 231 | 0.0 | 17.7 | 0.00 | 0.20 | 0.20 | 49 | 1006.5 |
| 20260503234526 | 18 | 148 | 1.6 | 17.7 | 0.00 | 0.20 | 0.20 | 47 | 1006.5 |
| 20260503234004 | 18 | 232 | 4.8 | 14.5 | 0.00 | 0.20 | 0.20 | 46 | 1006.5 |
| 20260503233504 | 18 | 165 | 1.6 | 14.5 | 0.00 | 0.20 | 0.20 | 50 | 1006.5 |
| 20260503233021 | 18 | 115 | 1.6 | 14.5 | 0.00 | 0.20 | 0.20 | 47 | 1006.5 |
| 20260503232504 | 18 | 115 | 1.6 | 9.7 | 0.00 | 0.20 | 0.20 | 46 | 1006.5 |
| 20260503232008 | 18 | 200 | 1.6 | 11.3 | 0.00 | 0.20 | 0.20 | 46 | 1006.4 |
| 20260503231520 | 18 | 240 | 4.8 | 17.7 | 0.00 | 0.20 | 0.20 | 45 | 1006.5 |
| 20260503231007 | 18 | 167 | 4.8 | 17.7 | 0.00 | 0.20 | 0.20 | 44 | 1006.5 |
| 20260503230511 | 18 | 114 | 3.2 | 11.3 | 0.00 | 0.20 | 0.20 | 45 | 1006.6 |
| 20260503230022 | 18 | 223 | 3.2 | 11.3 | 0.00 | 0.20 | 0.20 | 44 | 1006.7 |
| 20260503225509 | 18 | 312 | 0.0 | 17.7 | 0.00 | 0.20 | 0.20 | 46 | 1006.7 |
| 20260503225010 | 19 | 204 | 3.2 | 17.7 | 0.00 | 0.20 | 0.20 | 44 | 1006.8 |
| 20260503224506 | 19 | 143 | 3.2 | 9.7 | 0.00 | 0.20 | 0.20 | 45 | 1006.7 |
| 20260503224004 | 19 | 168 | 3.2 | 9.7 | 0.00 | 0.20 | 0.20 | 46 | 1006.8 |
| 20260503223504 | 19 | 257 | 0.0 | 11.3 | 0.00 | 0.20 | 0.20 | 45 | 1006.9 |
| 20260503223014 | 18 | 219 | 3.2 | 20.9 | 0.00 | 0.20 | 0.20 | 45 | 1006.9 |
| 20260503222504 | 18 | 216 | 3.2 | 20.9 | 0.00 | 0.20 | 0.20 | 46 | 1006.9 |
| 20260503222006 | 18 | 171 | 1.6 | 14.5 | 0.00 | 0.20 | 0.20 | 45 | 1007.0 |
| 20260503221556 | 18 | 192 | 1.6 | 14.5 | 0.00 | 0.20 | 0.20 | 44 | 1007.1 |
| 20260503221011 | 18 | 238 | 3.2 | 14.5 | 0.00 | 0.20 | 0.20 | 44 | 1007.2 |
| 20260503220511 | 19 | 252 | 1.6 | 9.7 | 0.00 | 0.20 | 0.20 | 44 | 1007.1 |
| 20260503220024 | 20 | 163 | 3.2 | 9.7 | 0.00 | 0.20 | 0.20 | 42 | 1007.1 |
| 20260503215508 | 19 | 186 | 3.2 | 9.7 | 0.00 | 0.20 | 0.20 | 42 | 1007.3 |
| 20260503215010 | 20 | 238 | 3.2 | 12.9 | 0.00 | 0.20 | 0.20 | 43 | 1007.2 |
| 20260503214524 | 20 | 262 | 3.2 | 12.9 | 0.00 | 0.20 | 0.20 | 46 | 1007.3 |
| 20260503214009 | 19 | 243 | 1.6 | 9.7 | 0.00 | 0.20 | 0.20 | 44 | 1007.4 |
| 20260503213508 | 18 | 251 | 1.6 | 9.7 | 0.00 | 0.20 | 0.20 | 48 | 1007.4 |
| 20260503213012 | 18 | 166 | 3.2 | 11.3 | 0.00 | 0.20 | 0.20 | 44 | 1007.5 |
| 20260503212505 | 19 | 185 | 3.2 | 11.3 | 0.00 | 0.20 | 0.20 | 44 | 1007.5 |
| 20260503212005 | 18 | 141 | 1.6 | 12.9 | 0.00 | 0.20 | 0.20 | 47 | 1007.7 |
| 20260503211526 | 17 | 160 | 3.2 | 14.5 | 0.00 | 0.20 | 0.20 | 44 | 1007.8 |
| 20260503211006 | 18 | 243 | 3.2 | 14.5 | 0.00 | 0.20 | 0.20 | 44 | 1007.7 |
| 20260503210507 | 18 | 135 | 1.6 | 12.9 | 0.00 | 0.20 | 0.20 | 45 | 1007.9 |
| 20260503210021 | 18 | 157 | 4.8 | 12.9 | 0.00 | 0.20 | 0.20 | 45 | 1008.0 |
| 20260503205506 | 17 | 137 | 4.8 | 22.5 | 0.00 | 0.20 | 0.20 | 46 | 1008.0 |
| 20260503205011 | 17 | 149 | 3.2 | 22.5 | 0.00 | 0.20 | 0.20 | 44 | 1008.2 |
| 20260503204526 | 17 | 183 | 6.4 | 19.3 | 0.00 | 0.20 | 0.20 | 44 | 1008.3 |
| 20260503204009 | 17 | 321 | 4.8 | 19.3 | 0.00 | 0.20 | 0.20 | 44 | 1008.5 |
| 20260503203511 | 17 | 164 | 3.2 | 17.7 | 0.00 | 0.20 | 0.20 | 43 | 1008.5 |
| 20260503203043 | 17 | 155 | 1.6 | 17.7 | 0.00 | 0.20 | 0.20 | 46 | 1008.6 |
| 20260503202504 | 16 | 210 | 4.8 | 17.7 | 0.00 | 0.20 | 0.20 | 44 | 1008.7 |
| 20260503202007 | 16 | 162 | 3.2 | 12.9 | 0.00 | 0.20 | 0.20 | 44 | 1008.8 |
| 20260503201514 | 17 | 173 | 4.8 | 20.9 | 0.00 | 0.20 | 0.20 | 44 | 1008.9 |
| 20260503201009 | 17 | 176 | 3.2 | 20.9 | 0.00 | 0.20 | 0.20 | 44 | 1008.9 |
| 20260503200505 | 17 | 148 | 6.4 | 19.3 | 0.00 | 0.20 | 0.20 | 45 | 1008.9 |
| 20260503200046 | 17 | 141 | 3.2 | 12.9 | 0.00 | 0.20 | 0.20 | 46 | 1008.8 |
| 20260503195509 | 17 | 133 | 4.8 | 17.7 | 0.00 | 0.20 | 0.20 | 44 | 1008.9 |
| 20260503195008 | 18 | 172 | 1.6 | 17.7 | 0.00 | 0.20 | 0.20 | 51 | 1008.9 |
| 20260503194536 | 17 | 207 | 4.8 | 16.1 | 0.00 | 0.20 | 0.20 | 46 | 1008.9 |
| 20260503194010 | 17 | 172 | 4.8 | 14.5 | 0.00 | 0.20 | 0.20 | 49 | 1009.0 |
| 20260503193508 | 17 | 189 | 4.8 | 14.5 | 0.00 | 0.20 | 0.20 | 47 | 1009.1 |
| 20260503193026 | 17 | 179 | 3.2 | 19.3 | 0.00 | 0.20 | 0.20 | 49 | 1009.1 |
| 20260503192508 | 17 | 172 | 3.2 | 19.3 | 0.00 | 0.20 | 0.20 | 47 | 1009.2 |
| 20260503192012 | 17 | 153 | 4.8 | 14.5 | 0.00 | 0.20 | 0.20 | 49 | 1009.2 |
| 20260503191513 | 17 | 35 | 4.8 | 14.5 | 0.00 | 0.20 | 0.20 | 53 | 1009.5 |
| 20260503191007 | 16 | 155 | 3.2 | 9.7 | 0.00 | 0.20 | 0.20 | 53 | 1009.4 |
| 20260503190508 | 16 | 180 | 3.2 | 9.7 | 0.00 | 0.20 | 0.20 | 57 | 1009.5 |
| 20260503190034 | 16 | 169 | 3.2 | 11.3 | 0.00 | 0.20 | 0.20 | 56 | 1009.6 |
| 20260503185511 | 16 | 286 | 4.8 | 19.3 | 0.00 | 0.20 | 0.20 | 57 | 1009.7 |
| 20260503185005 | 15 | 47 | 4.8 | 19.3 | 0.00 | 0.20 | 0.20 | 58 | 1010.0 |
| 20260503184524 | 15 | 180 | 3.2 | 11.3 | 0.00 | 0.20 | 0.20 | 61 | 1010.0 |
| 20260503184007 | 15 | 181 | 4.8 | 20.9 | 0.00 | 0.20 | 0.20 | 61 | 1010.1 |
| 20260503183510 | 14 | 181 | 6.4 | 20.9 | 0.00 | 0.20 | 0.20 | 63 | 1010.1 |
| 20260503183024 | 14 | 102 | 4.8 | 14.5 | 0.00 | 0.20 | 0.20 | 63 | 1010.2 |
| 20260503182507 | 13 | 155 | 4.8 | 14.5 | 0.00 | 0.20 | 0.20 | 66 | 1010.3 |
| 20260503182006 | 13 | 131 | 3.2 | 9.7 | 0.00 | 0.20 | 0.20 | 71 | 1010.4 |
| 20260503181524 | 12 | 160 | 4.8 | 9.7 | 0.00 | 0.20 | 0.20 | 71 | 1010.5 |
| 20260503181005 | 12 | 156 | 3.2 | 9.7 | 0.03 | 0.20 | 0.20 | 75 | 1010.7 |
| 20260503180506 | 12 | 284 | 4.8 | 9.7 | 0.03 | 0.20 | 0.20 | 72 | 1011.0 |
| 20260503180033 | 11 | 147 | 1.6 | 8.0 | 0.05 | 0.20 | 0.20 | 78 | 1011.1 |
| 20260503175508 | 11 | 148 | 1.6 | 8.0 | 0.05 | 0.20 | 0.20 | 80 | 1011.4 |
| 20260503175002 | 10 | 203 | 1.6 | 4.8 | 0.05 | 0.20 | 0.20 | 80 | 1011.3 |
| 20260503174503 | 10 | 105 | 1.6 | 4.8 | 0.05 | 0.20 | 0.20 | 82 | 1011.4 |
| 20260503174006 | 10 | 160 | 1.6 | 4.8 | 0.08 | 0.20 | 0.20 | 82 | 1011.9 |
| 20260503173503 | 9 | 153 | 1.6 | 4.8 | 0.10 | 0.20 | 0.20 | 85 | 1011.9 |
| 20260503173006 | 9 | 191 | 1.6 | 4.8 | 0.10 | 0.20 | 0.20 | 84 | 1012.2 |
| 20260503172504 | 8 | 274 | 1.6 | 4.8 | 0.10 | 0.20 | 0.20 | 85 | 1012.4 |
| 20260503172008 | 8 | 210 | 1.6 | 8.0 | 0.10 | 0.20 | 0.20 | 85 | 1012.5 |
| 20260503171510 | 8 | 163 | 1.6 | 8.0 | 0.10 | 0.20 | 0.20 | 84 | 1012.7 |
| 20260503171004 | 8 | 209 | 1.6 | 8.0 | 0.08 | 0.18 | 0.18 | 85 | 1013.0 |
| 20260503170508 | 8 | 158 | 3.2 | 8.0 | 0.08 | 0.18 | 0.18 | 85 | 1013.2 |
| 20260503151004 | 12 | 243 | 3.2 | 24.1 | 0.00 | 0.00 | 0.00 | 57 | 1014.3 |
| 20260503150504 | 12 | 226 | 4.8 | 19.3 | 0.00 | 0.00 | 0.00 | 56 | 1014.2 |
| 20260503131004 | 8 | 250 | 1.6 | 6.4 | 0.00 | 0.00 | 0.00 | 63 | 1015.1 |
| 20260503130503 | 8 | 169 | 0.0 | 8.0 | 0.00 | 0.00 | 0.00 | 65 | 1015.2 |
| 20260503110510 | 6 | 169 | 1.6 | 4.8 | 0.00 | 0.00 | 0.00 | 67 | 1014.7 |
| 20260503090510 | 5 | 259 | 0.0 | 3.2 | 0.00 | 0.00 | 0.00 | 66 | 1015.2 |
| 20260503081524 | 6 | 236 | 0.0 | 3.2 | 0.00 | 0.00 | 0.00 | 63 | 1015.4 |
| 20260503081005 | 6 | 244 | 1.6 | 4.8 | 0.00 | 0.00 | 0.00 | 63 | 1015.5 |
| 20260503080505 | 6 | 256 | 0.0 | 4.8 | 0.00 | 0.00 | 0.00 | 63 | 1015.4 |
| 20260503072506 | 6 | 177 | 0.0 | 3.2 | 0.00 | 0.00 | 0.00 | 63 | 1015.5 |
| 20260503072010 | 6 | 173 | 0.0 | 3.2 | 0.00 | 0.00 | 0.00 | 62 | 1015.5 |
| 20260503071509 | 6 | 173 | 0.0 | 3.2 | 0.00 | 0.00 | 0.00 | 63 | 1015.6 |
| 20260503071005 | 6 | 222 | 0.0 | 3.2 | 0.00 | 0.00 | 0.00 | 62 | 1015.6 |
| 20260503070504 | 6 | 236 | 0.0 | 3.2 | 0.00 | 0.00 | 0.00 | 61 | 1015.7 |
| 20260503055004 | 6 | 179 | 0.0 | 6.4 | 0.00 | 0.00 | 0.00 | 59 | 1016.3 |
| 20260503054526 | 6 | 201 | 0.0 | 3.2 | 0.00 | 0.00 | 0.00 | 59 | 1016.3 |
| 20260503054009 | 6 | 238 | 0.0 | 3.2 | 0.00 | 0.00 | 0.00 | 59 | 1016.3 |
| 20260503053508 | 6 | 221 | 0.0 | 3.2 | 0.00 | 0.00 | 0.00 | 59 | 1016.3 |
| 20260503053036 | 6 | 200 | 0.0 | 3.2 | 0.00 | 0.00 | 0.00 | 60 | 1016.4 |
| 20260503052508 | 6 | 200 | 0.0 | 3.2 | 0.00 | 0.00 | 0.00 | 60 | 1016.5 |
| 20260503052010 | 6 | 200 | 0.0 | 3.2 | 0.00 | 0.00 | 0.00 | 60 | 1016.5 |
| 20260503051524 | 6 | 200 | 0.0 | 3.2 | 0.00 | 0.00 | 0.00 | 60 | 1016.5 |
| 20260503051008 | 6 | 200 | 0.0 | 3.2 | 0.00 | 0.00 | 0.00 | 60 | 1016.6 |
| 20260503050511 | 6 | 200 | 0.0 | 3.2 | 0.00 | 0.00 | 0.00 | 59 | 1016.6 |
| 20260503050027 | 6 | 202 | 0.0 | 3.2 | 0.00 | 0.00 | 0.00 | 59 | 1016.6 |
| 20260503045511 | 6 | 239 | 0.0 | 1.6 | 0.00 | 0.00 | 0.00 | 59 | 1016.7 |
| 20260503045003 | 6 | 239 | 0.0 | 3.2 | 0.00 | 0.00 | 0.00 | 58 | 1016.6 |
| 20260503044515 | 6 | 169 | 0.0 | 3.2 | 0.00 | 0.00 | 0.00 | 59 | 1016.7 |
| 20260503044008 | 6 | 169 | 0.0 | 3.2 | 0.00 | 0.00 | 0.00 | 59 | 1016.7 |
| 20260503043508 | 6 | 169 | 0.0 | 3.2 | 0.00 | 0.00 | 0.00 | 59 | 1016.7 |
| 20260503043025 | 6 | 176 | 0.0 | 1.6 | 0.00 | 0.00 | 0.00 | 59 | 1016.7 |
| 20260503042510 | 6 | 176 | 0.0 | 3.2 | 0.00 | 0.00 | 0.00 | 59 | 1016.7 |
| 20260503042007 | 6 | 173 | 0.0 | 3.2 | 0.00 | 0.00 | 0.00 | 58 | 1016.7 |
| 20260503041522 | 6 | 173 | 0.0 | 0.0 | 0.00 | 0.00 | 0.00 | 59 | 1016.8 |
| 20260503041008 | 6 | 173 | 0.0 | 1.6 | 0.00 | 0.00 | 0.00 | 59 | 1016.7 |
| 20260503040507 | 6 | 173 | 0.0 | 1.6 | 0.00 | 0.00 | 0.00 | 58 | 1016.8 |
| 20260503040035 | 6 | 169 | 0.0 | 3.2 | 0.00 | 0.00 | 0.00 | 59 | 1016.9 |